Location: Asheville, NC
(35.6000°N, 82.5500°W)
Time: 10:19:38

Vanguard 1 Rocket - Pass Details

Date: 14 March 2018
Orbit: 655 x 4222 km, 34.3° (Epoch: 18 March)

Event Time Altitude Azimuth Distance (km) Brightness Sun altitude
Rises 02:04:18 0° 284° (WNW) 6,385 11.7 -56.4°
Reaches altitude 10° 02:08:17 10° 277° (W) 5,785 11.4 -56.3°
Enters shadow 02:09:59 14° 274° (W) 5,569 11.2 -56.2°
Maximum altitude 02:25:47 41° 216° (SW) 4,960 - -55.2°
Drops below altitude 10° 02:48:40 10° 156° (SSE) 7,309 - -53.2°
Exits shadow 02:50:36 - 154° (SSE) 7,567 11.8 -53.0°
Sets 02:54:45 0° 149° (SSE) 8,127 12.1 -52.6°
